Regional Weather Roundup
Issued by NWS

Home | Current Version | Previous Version | Graphics & Text | Print | Product List | Glossary On
Versions: 1 2 3 4 5 6 7 8 9 10 11 12 13 14 15 16 17 18 19 20 21 22 23 24 25 26 27 28 29 30 31 32 33 34 35 36 37 38 39 40 41 42 43 44 45 46 47 48
000
ASUS45 KBOU 272107
RWRCO

WEATHER ROUNDUP FOR COLORADO
NATIONAL WEATHER SERVICE DENVER/BOULDER CO
200 PM MST TUE JAN 27 2015

NOTE: "FAIR" INDICATES FEW OR NO CLOUDS BELOW 12000 FEET WITH NO
SIGNIFICANT WEATHER AND/OR OBSTRUCTIONS TO VISIBILITY.

COZ001>005-013-030-031-272200-
...NORTHWEST COLORADO...

CITY           SKY/WX    TMP DP  RH WIND       PRES   REMARKS
CRAIG          MOSUNNY   41  26  55 CALM      30.22F
HAYDEN         MOSUNNY   45  21  39 SE5       30.22F
MEEKER         PTSUNNY   44  26  49 CALM      30.22F
MOUNT WERNER   NOT AVBL
STEAMBOAT SPGS MOSUNNY   41  22  46 CALM      30.23F
WALDEN         SUNNY     43  23  45 CALM      30.25F
$$

COZ006>008-011-272200-
...WEST CENTRAL VALLEYS...

CITY           SKY/WX    TMP DP  RH WIND       PRES   REMARKS
GRAND JUNCTION CLOUDY    48  29  47 NW13      30.26F
MONTROSE       PTSUNNY   59  23  25 NW10      30.24F
EAGLE          SUNNY     43  21  42 CALM      30.28F
RIFLE          SUNNY     53  25  33 CALM      30.22F
DELTA          CLOUDY    58  26  29 W13       30.23F
NUCLA          CLOUDY    52  30  43 NW6       30.32F
$$

COZ017>023-064>068-272200-
...SOUTHWEST COLORADO...

CITY           SKY/WX    TMP DP  RH WIND       PRES   REMARKS
DURANGO        CLOUDY    49  27  42 SW6       30.31F
CORTEZ         MOSUNNY   55  33  43 CALM      30.30F
PAGOSA SPRINGS MOSUNNY   53  20  28 S8        30.32F
TELLURIDE      PTSUNNY   43  24  45 W20       30.33F
WOLF CREEK PAS NOT AVBL
$$

COZ009-010-012-014-032>034-037-058>063-272200-
...CENTRAL COLORADO...

CITY           SKY/WX    TMP DP  RH WIND       PRES   REMARKS
ASPEN          SUNNY     47  21  35 N6        30.24F
BUENA VISTA    SUNNY     55  19  24 E5        30.23F
COPPER MTN     MOSUNNY   43   7  22 W9        30.41F
BERTHOUD PASS  FAIR      34  30  86 NW12      30.44F WCI  25
COTTONWOOD PAS SUNNY     52  16  24 SE7       30.31F
GUNNISON       SUNNY     21  16  79 CALM      30.37F
KREMMLING      SUNNY     28  18  64 CALM      30.32F
LEADVILLE      SUNNY     48   9  20 SW5       30.29F
MONARCH PASS   SUNNY     37  12  35 SW22      30.51F
SALIDA         SUNNY     60  15  17 S15G21    30.29F
SUNLIGHT       SUNNY     43  21  42 CALM      30.39F
WILKERSON PASS SUNNY     45  16  31 SW6       30.40F
$$

COZ069>075-272200-
...SAN LUIS VALLEY/SANGRE DE CRISTO MOUNTAINS...

CITY           SKY/WX    TMP DP  RH WIND       PRES   REMARKS
ALAMOSA        SUNNY     50  20  30 CALM      30.29F
LA VETA PASS   NOT AVBL
SAGUACHE       SUNNY     37  25  60 S3        30.32F
$$

COZ035-036-038>040-272200-
...NORTHERN COLORADO FRONT RANGE...

CITY           SKY/WX    TMP DP  RH WIND       PRES   REMARKS
DENVER INTL AP PTSUNNY   70  14  11 SW5       30.05F
DMNS CITY PARK   N/A     76  10   8 N2        30.03F
AURORA         PTSUNNY   72  12  10 NW2       30.06F
FRONT RANGE AP PTSUNNY   72  21  15 CALM      30.06F
ERIE MUNI ARPT MOSUNNY   70  19  14 CALM      30.04F
BOULDER MUN AP MOSUNNY   70  21  16 CALM      30.04F
CENTENNIAL     MOSUNNY   72  14  11 S6        30.06F
BROOMFIELD     MOSUNNY   72  18  13 CALM      30.07F
FORT COLLINS   SUNNY     66  30  26 E6        30.05F
LONGMONT       SUNNY     74  20  13 CALM      30.05F
$$

COZ041-046-047-076>085-087-088-272200-
...PIKES PEAK/PALMER DIVIDE AND SOUTHERN FOOTHILLS...

CITY           SKY/WX    TMP DP  RH WIND       PRES   REMARKS
COLO. SPRINGS  MOSUNNY   66  23  19 S10       30.12F
A. F. ACADEMY  MOSUNNY   68  15  12 S9        30.12F
ELLICOTT       MOSUNNY  N/A N/A N/A S10       30.11F
FALCON         MOSUNNY   67  16  14 S9        30.16F
FORT CARSON    MOSUNNY   66  31  26 SE5       30.09F
LIMON          MOSUNNY   72  15  11 S14G24    30.08F
MONUMENT HILL  MOSUNNY   64  18  16 SW10      30.15F
TRINIDAD       PTSUNNY   69  26  20 NE8       30.11F
$$

COZ042>045-048>051-090-091-272200-
...NORTHEAST COLORADO...

CITY           SKY/WX    TMP DP  RH WIND       PRES   REMARKS
GREELEY ARPT   MOSUNNY   64  30  27 CALM      30.02F
AKRON          MOSUNNY   70  23  17 CALM      30.04F
BURLINGTON     SUNNY     74  28  18 SW15      30.05F
WRAY           SUNNY     78  21  12 CALM      30.01F
STERLING       MOSUNNY   70  34  26 S5        30.01F
HOLYOKE        SUNNY     79  21  11 NW9       30.01S
FORT MORGAN    MOSUNNY   68  23  18 E3        30.03F
$$

COZ086-089-092>099-272200-
...SOUTHEAST COLORADO...

CITY           SKY/WX    TMP DP  RH WIND       PRES   REMARKS
PUEBLO         PTSUNNY   71  21  15 S5        30.05F
LA JUNTA       MOSUNNY   70  31  23 VRB6      30.05F
LAMAR          MOSUNNY   70  32  24 N5        30.03F
SPRINGFIELD      N/A     71  26  18 S14       30.08F
$$


USA.gov is the U.S. government's official web portal to all federal, state and local government web resources and services.